Content
SEND FEEDBACK

Daily
Averages
Monthly
Summary
United Kingdom

LONDON, ENGLAND


Home > Europe > United Kingdom > England
Elevation: 203 feet     Latitude: 51 09N     Longitude: 000 11W

WEATHER
 
SELECT A DAY
Number of Records: 298,815;   Date Range: 7/1/96 - 11/26/14
 
SHARE

PRINT THIS DATA

[ ← Previous Day ]
WEATHER ALMANAC - JUNE 7, 2014
[ Next Day → ]
[ °C ]   °F
Weather ElementAverageHighLow
Temperature62.9 °F69.8 °F (1:20 pm)55.4 °F (2:50 am)
Dewpoint55.3 °F60.8 °F (8:50 am)51.8 °F (12:50 am)
Humidity77.7 %94 % (4:50 am)53 % (4:50 pm)
Barometer29.89 in30.04 in (11:50 pm)29.77 in (7:20 am)
Wind Speed6.4 mph11.5 mph (1:50 pm)
Weather ElementAverage
Visibility6 mi
Wind DirectionSSE (148.9 °)

Weather ElementTotal
Precipitation---
Heating Degree Days2.4 (Base 65)
Growing Degree Days12.6 (Base 50)
Averaged from 47 records on June 7, 2014
WEATHER CONDITIONS BREAKOUT
WIND DIRECTION BREAKOUT
WEATHER BY HOUR - JUNE 7, 2014
[ °C ]   °F
Local TimeTemperatureDewpointHumidityBarometerVisibilityWind DirectionWind SpeedGust SpeedPrecipitationEventsConditions
12:50 AM57.2 °F51.8 °F82 %29.86 inEast (80°)6.9 mphClear
1:20 AM57.2 °F51.8 °F82 %29.83 inEast (80°)6.9 mphClear
1:50 AM57.2 °F51.8 °F82 %29.83 inENE (70°)5.8 mphClear
2:20 AM57.2 °F51.8 °F82 %29.83 inEast (80°)4.6 mphClear
2:50 AM55.4 °F51.8 °F88 %29.83 inENE (60°)3.5 mphClear
3:20 AM55.4 °F51.8 °F88 %29.83 inEast (90°)4.6 mphClear
3:50 AM55.4 °F51.8 °F88 %29.80 inEast (90°)4.6 mphClear
4:20 AM55.4 °F51.8 °F88 %29.80 inEast (80°)4.6 mphClear
4:50 AM55.4 °F53.6 °F94 %29.80 inEast (80°)4.6 mphClear
5:20 AM57.2 °F53.6 °F88 %29.83 inCalmClear
5:50 AM59.0 °F55.4 °F88 %29.83 in6.2 miVariable2.3 mphRainLight Rain
6:20 AM59.0 °F57.2 °F94 %29.80 in6.2 miVariable4.6 mphRainLight Rain
6:50 AM59.0 °F55.4 °F88 %29.80 in6.2 miVariable2.3 mphRainLight Rain
7:20 AM60.8 °F57.2 °F88 %29.77 in6.2 miVariable3.5 mphRainLight Rain
7:50 AM59.0 °F57.2 °F94 %29.77 in6.2 miESE (110°)8.1 mphPartly Cloudy
8:20 AM62.6 °F59.0 °F88 %29.77 in6.2 miESE (120°)6.9 mphPartly Cloudy
8:50 AM66.2 °F60.8 °F83 %29.80 in6.2 miVariable3.5 mphPartly Cloudy
9:20 AM66.2 °F60.8 °F83 %29.83 in6.2 miSSW (200°)4.6 mphPartly Cloudy
9:50 AM66.2 °F60.8 °F83 %29.89 in3.1 miSouth (190°)10.4 mphRainRain
10:20 AM62.6 °F60.8 °F94 %29.89 in3.7 miVariable3.5 mphMostly Cloudy
10:50 AM62.6 °F60.8 °F94 %29.86 in6.2 miSSW (200°)4.6 mphRainLight Rain
11:20 AM64.4 °F60.8 °F88 %29.86 in6.2 miSW (230°)8.1 mphScattered Clouds
11:50 AM66.2 °F60.8 °F83 %29.86 in6.2 miWSW (240°)10.4 mphMostly Cloudy
12:20 PM66.2 °F60.8 °F83 %29.89 in6.2 miWSW (240°)8.1 mphMostly Cloudy
12:50 PM66.2 °F59.0 °F78 %29.89 in6.2 miWSW (250°)8.1 mphScattered Clouds
1:20 PM69.8 °F60.8 °F73 %29.89 in6.2 miWSW (250°)6.9 mphPartly Cloudy
1:50 PM69.8 °F57.2 °F64 %29.89 in6.2 miSW (230°)11.5 mphScattered Clouds
2:20 PM69.8 °F55.4 °F60 %29.89 in6.2 miWSW (250°)11.5 mphScattered Clouds
2:50 PM69.8 °F57.2 °F64 %29.92 in6.2 miWest (260°)11.5 mphScattered Clouds
3:20 PM69.8 °F55.4 °F60 %29.92 in6.2 miWSW (240°)11.5 mphPartly Cloudy
3:50 PM68.0 °F51.8 °F56 %29.92 in6.2 miSW (230°)10.4 mphPartly Cloudy
4:20 PM68.0 °F51.8 °F56 %29.92 in6.2 miSW (230°)8.1 mphPartly Cloudy
4:50 PM69.8 °F51.8 °F53 %29.95 in6.2 miSW (230°)10.4 mphPartly Cloudy
5:20 PM69.8 °F53.6 °F56 %29.95 in6.2 miSSW (210°)9.2 mphPartly Cloudy
5:50 PM69.8 °F53.6 °F56 %29.95 in6.2 miSW (220°)8.1 mphPartly Cloudy
6:20 PM68.0 °F53.6 °F60 %29.95 in6.2 miSSW (210°)8.1 mphPartly Cloudy
6:50 PM68.0 °F53.6 °F60 %29.95 in6.2 miSSW (210°)8.1 mphPartly Cloudy
7:20 PM68.0 °F53.6 °F60 %29.98 inSW (220°)8.1 mphClear
7:50 PM66.2 °F53.6 °F64 %29.98 inSW (230°)6.9 mphClear
8:20 PM66.2 °F53.6 °F64 %29.98 inSW (220°)6.9 mphClear
8:50 PM64.4 °F53.6 °F68 %29.98 inSSW (210°)8.1 mphClear
9:20 PM60.8 °F53.6 °F77 %30.01 inSSW (210°)5.8 mphClear
9:50 PM60.8 °F53.6 °F77 %30.01 inSSW (210°)5.8 mphClear
10:20 PM59.0 °F53.6 °F82 %30.01 inSSW (200°)4.6 mphClear
10:50 PM57.2 °F53.6 °F88 %30.01 inVariable2.3 mphClear
11:20 PM57.2 °F53.6 °F88 %30.01 inWSW (240°)3.5 mphClear
11:50 PM55.4 °F53.6 °F94 %30.04 inCalmClear
Hourly data recorded from EGKK, located miles away from London, England







STORIES FROM OUR PARTNERS